| time (UTC) | temp F | wind direction | speed MPH | gust MPH | rain 1hr in | rain 24hr in | rain mn in | humidity % | barometer mb |
| 20260510214352 | 66 | 188 | 0.0 | 1.0 | 0.00 | 0.24 | 0.00 | 93 | 1013.5 |
| 20260510213840 | 66 | 188 | 0.0 | 1.0 | 0.00 | 0.24 | 0.00 | 92 | 1013.4 |
| 20260510213411 | 66 | 188 | 0.0 | 0.0 | 0.00 | 0.24 | 0.00 | 92 | 1013.4 |
| 20260510213110 | 65 | 188 | 0.0 | 0.0 | 0.00 | 0.24 | 0.00 | 91 | 1013.3 |
| 20260510213047 | 65 | 0 | 0.0 | 1.0 | 0.00 | 0.24 | 0.00 | 91 | 1012.9 |
| 20260510212857 | 66 | 188 | 0.0 | 1.0 | 0.00 | 0.24 | 0.00 | 91 | 1013.4 |
| 20260510212405 | 66 | 188 | 0.0 | 1.0 | 0.00 | 0.24 | 0.00 | 91 | 1013.3 |
| 20260510211854 | 66 | 188 | 0.0 | 1.0 | 0.00 | 0.24 | 0.00 | 91 | 1013.3 |
| 20260510211622 | 66 | 188 | 0.0 | 1.0 | 0.00 | 0.24 | 0.00 | 90 | 1013.1 |
| 20260510211544 | 66 | 0 | 0.0 | 1.0 | 0.00 | 0.24 | 0.00 | 90 | 1012.8 |
| 20260510211346 | 66 | 188 | 0.0 | 1.0 | 0.00 | 0.24 | 0.00 | 90 | 1013.2 |
| 20260510210836 | 66 | 188 | 0.0 | 1.0 | 0.00 | 0.24 | 0.00 | 90 | 1013.2 |
| 20260510210347 | 66 | 180 | 0.0 | 1.0 | 0.00 | 0.24 | 0.00 | 89 | 1013.1 |
| 20260510210111 | 66 | 109 | 0.0 | 0.0 | 0.00 | 0.24 | 0.00 | 88 | 1013.0 |
| 20260510210050 | 66 | 0 | 0.0 | 0.0 | 0.00 | 0.24 | 0.00 | 88 | 1012.6 |
| 20260510205854 | 66 | 109 | 0.0 | 0.0 | 0.00 | 0.29 | 0.00 | 89 | 1013.0 |
| 20260510205345 | 67 | 109 | 0.0 | 1.0 | 0.00 | 0.29 | 0.00 | 89 | 1013.0 |
| 20260510204857 | 67 | 109 | 0.0 | 1.0 | 0.00 | 0.29 | 0.00 | 88 | 1013.0 |
| 20260510204622 | 66 | 109 | 0.0 | 1.0 | 0.00 | 0.28 | 0.00 | 87 | 1012.9 |
| 20260510204551 | 66 | 0 | 0.0 | 1.0 | 0.00 | 0.29 | 0.00 | 87 | 1012.4 |
| 20260510204348 | 67 | 109 | 0.0 | 0.0 | 0.00 | 0.29 | 0.00 | 87 | 1012.9 |
| 20260510203859 | 67 | 109 | 0.0 | 1.0 | 0.00 | 0.29 | 0.00 | 87 | 1012.9 |
| 20260510203349 | 67 | 109 | 0.0 | 1.0 | 0.00 | 0.29 | 0.00 | 86 | 1013.0 |
| 20260510203107 | 67 | 109 | 0.0 | 2.0 | 0.00 | 0.28 | 0.00 | 85 | 1012.9 |
| 20260510203039 | 67 | 0 | 0.0 | 2.0 | 0.00 | 0.29 | 0.00 | 85 | 1012.5 |
| 20260510202854 | 67 | 109 | 0.0 | 2.0 | 0.00 | 0.29 | 0.00 | 86 | 1012.9 |
| 20260510202405 | 68 | 109 | 1.0 | 2.0 | 0.00 | 0.29 | 0.00 | 85 | 1012.9 |
| 20260510201856 | 68 | 142 | 1.0 | 3.0 | 0.00 | 0.29 | 0.00 | 85 | 1012.9 |
| 20260510201603 | 67 | 186 | 1.0 | 3.0 | 0.00 | 0.28 | 0.00 | 84 | 1012.9 |
| 20260510201539 | 67 | 186 | 1.0 | 3.0 | 0.00 | 0.29 | 0.00 | 84 | 1012.4 |
| 20260510201346 | 68 | 186 | 2.0 | 3.0 | 0.00 | 0.29 | 0.00 | 83 | 1013.0 |
| 20260510200856 | 68 | 197 | 1.0 | 3.0 | 0.00 | 0.29 | 0.00 | 83 | 1013.0 |
| 20260510200346 | 68 | 287 | 1.0 | 4.0 | 0.00 | 0.29 | 0.00 | 84 | 1013.0 |
| 20260510200112 | 68 | 92 | 1.0 | 4.0 | 0.00 | 0.28 | 0.00 | 83 | 1012.8 |
| 20260510200044 | 68 | 88 | 1.0 | 4.0 | 0.00 | 0.29 | 0.00 | 83 | 1012.5 |
| 20260510195853 | 68 | 184 | 1.0 | 4.0 | 0.00 | 0.34 | 0.00 | 84 | 1012.9 |
| 20260510195404 | 68 | 193 | 1.0 | 3.0 | 0.00 | 0.34 | 0.00 | 83 | 1012.9 |
| 20260510194852 | 69 | 217 | 0.0 | 2.0 | 0.00 | 0.34 | 0.00 | 82 | 1012.9 |
| 20260510194621 | 68 | 161 | 0.0 | 2.0 | 0.00 | 0.34 | 0.00 | 83 | 1012.7 |
| 20260510194539 | 68 | 0 | 0.0 | 3.0 | 0.00 | 0.34 | 0.00 | 82 | 1012.4 |
| 20260510194343 | 69 | 174 | 1.0 | 2.0 | 0.00 | 0.34 | 0.00 | 81 | 1012.9 |
| 20260510193853 | 69 | 167 | 1.0 | 3.0 | 0.00 | 0.34 | 0.00 | 81 | 1012.8 |
| 20260510193345 | 70 | 131 | 2.0 | 3.0 | 0.00 | 0.34 | 0.00 | 80 | 1012.9 |
| 20260510193109 | 69 | 217 | 1.0 | 3.0 | 0.00 | 0.34 | 0.00 | 81 | 1012.8 |
| 20260510193107 | 69 | 194 | 1.0 | 4.0 | 0.00 | 0.34 | 0.00 | 80 | 1012.4 |
| 20260510192852 | 70 | 115 | 2.0 | 3.0 | 0.00 | 0.34 | 0.00 | 81 | 1012.8 |
| 20260510192343 | 70 | 144 | 1.0 | 3.0 | 0.00 | 0.34 | 0.00 | 80 | 1013.0 |
| 20260510191853 | 70 | 175 | 1.0 | 5.0 | 0.00 | 0.34 | 0.00 | 78 | 1012.9 |
| 20260510191602 | 70 | 167 | 1.0 | 5.0 | 0.00 | 0.34 | 0.00 | 79 | 1012.8 |
| 20260510191544 | 70 | 171 | 1.0 | 5.0 | 0.00 | 0.34 | 0.00 | 78 | 1012.4 |
| 20260510191346 | 71 | 134 | 2.0 | 5.0 | 0.00 | 0.34 | 0.00 | 76 | 1013.0 |
| 20260510190856 | 71 | 205 | 2.0 | 4.0 | 0.00 | 0.34 | 0.00 | 75 | 1013.1 |
| 20260510190347 | 71 | 163 | 1.0 | 4.0 | 0.00 | 0.34 | 0.00 | 75 | 1013.0 |
| 20260510190112 | 70 | 231 | 2.0 | 4.0 | 0.00 | 0.34 | 0.00 | 77 | 1013.0 |
| 20260510190043 | 70 | 229 | 1.0 | 4.0 | 0.00 | 0.34 | 0.00 | 76 | 1012.5 |
| 20260510185856 | 70 | 98 | 1.0 | 3.0 | 0.00 | 0.59 | 0.00 | 80 | 1013.0 |
| 20260510185345 | 70 | 196 | 1.0 | 3.0 | 0.00 | 0.59 | 0.00 | 81 | 1013.1 |
| 20260510184836 | 69 | 222 | 2.0 | 3.0 | 0.00 | 0.59 | 0.00 | 76 | 1013.2 |
| 20260510184613 | 69 | 204 | 1.0 | 5.0 | 0.00 | 0.59 | 0.00 | 77 | 1013.2 |
| 20260510184542 | 69 | 157 | 0.0 | 5.0 | 0.00 | 0.58 | 0.00 | 77 | 1012.6 |
| 20260510184407 | 70 | 176 | 1.0 | 5.0 | 0.00 | 0.59 | 0.00 | 76 | 1013.3 |
| 20260510183836 | 70 | 173 | 1.0 | 4.0 | 0.00 | 0.59 | 0.00 | 76 | 1013.3 |
| 20260510183347 | 70 | 211 | 1.0 | 4.0 | 0.00 | 0.59 | 0.00 | 77 | 1013.3 |
| 20260510183115 | 70 | 159 | 2.0 | 4.0 | 0.00 | 0.59 | 0.00 | 76 | 1013.2 |
| 20260510183056 | 70 | 159 | 2.0 | 5.0 | 0.00 | 0.58 | 0.00 | 76 | 1012.7 |
| 20260510182853 | 70 | 219 | 2.0 | 4.0 | 0.00 | 0.59 | 0.00 | 78 | 1013.3 |
| 20260510182344 | 70 | 229 | 2.0 | 4.0 | 0.00 | 0.59 | 0.00 | 78 | 1013.3 |
| 20260510181837 | 70 | 189 | 1.0 | 3.0 | 0.00 | 0.59 | 0.00 | 79 | 1013.2 |
| 20260510181621 | 68 | 228 | 0.0 | 5.0 | 0.00 | 0.59 | 0.00 | 80 | 1013.1 |
| 20260510181614 | 68 | 0 | 1.0 | 5.0 | 0.00 | 0.58 | 0.00 | 78 | 1012.6 |
| 20260510181348 | 68 | 220 | 1.0 | 5.0 | 0.00 | 0.59 | 0.00 | 79 | 1013.2 |
| 20260510180836 | 68 | 229 | 2.0 | 4.0 | 0.00 | 0.59 | 0.00 | 80 | 1013.2 |
| 20260510180408 | 69 | 186 | 1.0 | 3.0 | 0.00 | 0.59 | 0.00 | 80 | 1013.2 |
| 20260510180107 | 68 | 192 | 0.0 | 2.0 | 0.00 | 0.59 | 0.00 | 79 | 1013.2 |
| 20260510180044 | 68 | 0 | 0.0 | 3.0 | 0.00 | 0.58 | 0.00 | 77 | 1012.7 |
| 20260510175854 | 69 | 170 | 0.0 | 3.0 | 0.00 | 0.59 | 0.00 | 78 | 1013.3 |
| 20260510175344 | 69 | 184 | 1.0 | 5.0 | 0.00 | 0.59 | 0.00 | 78 | 1013.2 |
| 20260510174836 | 69 | 241 | 1.0 | 5.0 | 0.00 | 0.59 | 0.00 | 77 | 1013.2 |
| 20260510174620 | 69 | 348 | 2.0 | 5.0 | 0.00 | 0.59 | 0.00 | 76 | 1013.1 |
| 20260510174552 | 69 | 291 | 1.0 | 4.0 | 0.00 | 0.58 | 0.00 | 76 | 1012.6 |
| 20260510174346 | 69 | 279 | 1.0 | 4.0 | 0.00 | 0.59 | 0.00 | 79 | 1013.2 |
| 20260510173854 | 69 | 163 | 2.0 | 4.0 | 0.00 | 0.59 | 0.00 | 78 | 1013.3 |
| 20260510173345 | 69 | 157 | 1.0 | 3.0 | 0.00 | 0.59 | 0.00 | 83 | 1013.4 |
| 20260510173115 | 68 | 28 | 0.0 | 3.0 | 0.00 | 0.59 | 0.00 | 80 | 1013.4 |
| 20260510173045 | 68 | 0 | 1.0 | 4.0 | 0.00 | 0.58 | 0.00 | 79 | 1013.0 |
| 20260510172849 | 69 | 234 | 327.0 | 327.0 | 0.00 | 0.00 | 0.00 | 85 | 1013.4 |
| 20260510172338 | 67 | 151 | 1.0 | 4.0 | 0.00 | 0.59 | 0.00 | 83 | 1013.4 |
| 20260510171910 | 67 | 72 | 2.0 | 5.0 | 0.00 | 0.59 | 0.00 | 84 | 1013.3 |
| 20260510171545 | 66 | 75 | 0.0 | 5.0 | 0.00 | 0.58 | 0.00 | 83 | 1012.8 |
| 20260510171503 | 65 | 9 | 1.0 | 3.0 | 0.00 | 0.59 | 0.00 | 83 | 1013.3 |
| 20260510171401 | 66 | 9 | 1.0 | 3.0 | 0.00 | 0.59 | 0.00 | 83 | 1013.4 |
| 20260510170849 | 66 | 9 | 1.0 | 3.0 | 0.00 | 0.59 | 0.00 | 83 | 1013.4 |
| 20260510170359 | 66 | 173 | 1.0 | 3.0 | 0.00 | 0.59 | 0.00 | 87 | 1013.6 |
| 20260510170042 | 64 | 0 | 1.0 | 4.0 | 0.00 | 0.58 | 0.00 | 86 | 1013.1 |
| 20260510165845 | 64 | 217 | 1.0 | 3.0 | 0.00 | 0.59 | 0.00 | 85 | 1013.7 |
| 20260510165354 | 64 | 163 | 1.0 | 5.0 | 0.00 | 0.59 | 0.00 | 89 | 1013.8 |
| 20260510164846 | 63 | 225 | 3.0 | 5.0 | 0.00 | 0.59 | 0.00 | 87 | 1013.8 |
| 20260510164613 | 63 | 225 | 2.0 | 5.0 | 0.00 | 0.59 | 0.00 | 86 | 1013.6 |
| 20260510164542 | 63 | 223 | 2.0 | 5.0 | 0.00 | 0.58 | 0.00 | 84 | 1013.3 |
| 20260510164354 | 64 | 217 | 3.0 | 5.0 | 0.00 | 0.59 | 0.00 | 90 | 1013.7 |
| 20260510163845 | 63 | 141 | 2.0 | 4.0 | 0.00 | 0.59 | 0.00 | 87 | 1013.7 |
| 20260510163356 | 62 | 105 | 1.0 | 3.0 | 0.00 | 0.59 | 0.00 | 91 | 1013.7 |
| 20260510163121 | 62 | 92 | 0.0 | 3.0 | 0.00 | 0.59 | 0.00 | 89 | 1013.8 |
| 20260510163038 | 62 | 0 | 0.0 | 5.0 | 0.00 | 0.58 | 0.00 | 89 | 1013.4 |
| 20260510162843 | 62 | 124 | 1.0 | 3.0 | 0.00 | 0.59 | 0.00 | 92 | 1013.9 |
| 20260510162352 | 61 | 203 | 2.0 | 5.0 | 0.00 | 0.59 | 0.00 | 91 | 1013.9 |
| 20260510161902 | 61 | 261 | 2.0 | 5.0 | 0.00 | 0.59 | 0.00 | 91 | 1013.8 |
| 20260510161608 | 60 | 313 | 1.0 | 3.0 | 0.00 | 0.59 | 0.00 | 93 | 1013.7 |
| 20260510161538 | 60 | 292 | 1.0 | 3.0 | 0.00 | 0.58 | 0.00 | 92 | 1013.4 |
| 20260510161351 | 60 | 223 | 1.0 | 3.0 | 0.00 | 0.59 | 0.00 | 93 | 1013.8 |
| 20260510160842 | 60 | 93 | 0.0 | 3.0 | 0.00 | 0.59 | 0.00 | 94 | 1013.8 |
| 20260510160354 | 60 | 185 | 0.0 | 3.0 | 0.00 | 0.59 | 0.00 | 94 | 1013.9 |
| 20260510160117 | 59 | 260 | 0.0 | 3.0 | 0.00 | 0.59 | 0.00 | 94 | 1013.8 |
| 20260510160041 | 59 | 0 | 0.0 | 3.0 | 0.00 | 0.58 | 0.00 | 94 | 1013.4 |
| 20260510155838 | 59 | 213 | 1.0 | 3.0 | 0.00 | 0.59 | 0.00 | 95 | 1013.9 |
| 20260510155349 | 59 | 170 | 1.0 | 2.0 | 0.00 | 0.59 | 0.00 | 95 | 1014.0 |
| 20260510154840 | 59 | 173 | 1.0 | 2.0 | 0.00 | 0.59 | 0.00 | 95 | 1014.0 |
| 20260510154608 | 58 | 190 | 0.0 | 2.0 | 0.00 | 0.59 | 0.00 | 95 | 1014.0 |
| 20260510154536 | 58 | 0 | 0.0 | 3.0 | 0.00 | 0.58 | 0.00 | 95 | 1013.5 |
| 20260510154350 | 59 | 285 | 1.0 | 3.0 | 0.00 | 0.59 | 0.00 | 96 | 1014.0 |
| 20260510153841 | 59 | 202 | 0.0 | 3.0 | 0.00 | 0.59 | 0.00 | 96 | 1014.0 |
| 20260510153351 | 58 | 140 | 1.0 | 3.0 | 0.00 | 0.59 | 0.00 | 97 | 1013.9 |
| 20260510153117 | 58 | 172 | 1.0 | 3.0 | 0.00 | 0.59 | 0.00 | 97 | 1013.9 |
| 20260510153046 | 58 | 172 | 0.0 | 3.0 | 0.00 | 0.58 | 0.00 | 96 | 1013.4 |
| 20260510152838 | 58 | 197 | 1.0 | 3.0 | 0.00 | 0.59 | 0.00 | 97 | 1013.9 |
| 20260510152409 | 58 | 174 | 1.0 | 4.0 | 0.00 | 0.59 | 0.00 | 97 | 1014.0 |
| 20260510151858 | 58 | 227 | 2.0 | 4.0 | 0.00 | 0.59 | 0.00 | 98 | 1014.1 |
| 20260510151605 | 57 | 98 | 1.0 | 3.0 | 0.00 | 0.59 | 0.00 | 98 | 1014.0 |
| 20260510151545 | 57 | 98 | 0.0 | 3.0 | 0.00 | 0.58 | 0.00 | 97 | 1013.5 |
| 20260510151347 | 58 | 94 | 1.0 | 3.0 | 0.00 | 0.59 | 0.00 | 98 | 1014.0 |
| 20260510150837 | 58 | 160 | 1.0 | 2.0 | 0.00 | 0.59 | 0.00 | 98 | 1014.1 |
| 20260510150350 | 58 | 167 | 1.0 | 2.0 | 0.00 | 0.59 | 0.00 | 98 | 1014.1 |
| 20260510150114 | 57 | 116 | 1.0 | 3.0 | 0.00 | 0.59 | 0.00 | 98 | 1014.1 |
| 20260510150038 | 57 | 115 | 0.0 | 3.0 | 0.00 | 0.58 | 0.00 | 98 | 1013.5 |
| 20260510145841 | 57 | 148 | 1.0 | 3.0 | 0.00 | 0.59 | 0.00 | 99 | 1014.1 |
| 20260510145351 | 57 | 226 | 2.0 | 3.0 | 0.00 | 0.59 | 0.00 | 99 | 1014.1 |
| 20260510144842 | 57 | 165 | 0.0 | 3.0 | 0.00 | 0.59 | 0.00 | 99 | 1014.1 |
| 20260510144615 | 57 | 163 | 0.0 | 3.0 | 0.00 | 0.59 | 0.00 | 99 | 1014.1 |
| 20260510144543 | 57 | 134 | 0.0 | 3.0 | 0.00 | 0.58 | 0.00 | 98 | 1013.5 |
| 20260510144350 | 57 | 210 | 1.0 | 3.0 | 0.00 | 0.59 | 0.00 | 99 | 1014.2 |
| 20260510143839 | 57 | 194 | 1.0 | 3.0 | 0.00 | 0.59 | 0.00 | 99 | 1014.0 |
| 20260510143411 | 57 | 219 | 2.0 | 3.0 | 0.00 | 0.59 | 0.00 | 99 | 1014.1 |
| 20260510143116 | 56 | 220 | 0.0 | 2.0 | 0.00 | 0.59 | 0.00 | 99 | 1014.0 |
| 20260510143047 | 56 | 204 | 0.0 | 2.0 | 0.00 | 0.58 | 0.00 | 99 | 1013.5 |
| 20260510142857 | 56 | 142 | 0.0 | 2.0 | 0.00 | 0.59 | 0.00 | 99 | 1014.1 |
| 20260510142346 | 56 | 196 | 1.0 | 2.0 | 0.00 | 0.59 | 0.00 | 99 | 1014.0 |
| 20260510141853 | 56 | 173 | 1.0 | 2.0 | 0.00 | 0.59 | 0.00 | 99 | 1013.9 |
| 20260510141617 | 56 | 175 | 1.0 | 3.0 | 0.00 | 0.59 | 0.00 | 99 | 1013.7 |
| 20260510141543 | 56 | 157 | 1.0 | 2.0 | 0.00 | 0.58 | 0.00 | 99 | 1013.2 |
| 20260510141342 | 56 | 165 | 1.0 | 2.0 | 0.00 | 0.59 | 0.00 | 99 | 1013.8 |
| 20260510140911 | 56 | 190 | 1.0 | 2.0 | 0.00 | 0.59 | 0.00 | 99 | 1013.6 |
| 20260510140358 | 55 | 207 | 0.0 | 1.0 | 0.00 | 0.59 | 0.00 | 99 | 1013.6 |
| 20260510140117 | 55 | 207 | 0.0 | 3.0 | 0.00 | 0.59 | 0.00 | 99 | 1013.6 |
| 20260510140042 | 55 | 0 | 0.0 | 3.0 | 0.00 | 0.58 | 0.00 | 99 | 1013.2 |
| 20260510135843 | 56 | 207 | 0.0 | 3.0 | 0.00 | 0.59 | 0.00 | 99 | 1013.7 |
| 20260510135351 | 55 | 234 | 1.0 | 3.0 | 0.00 | 0.59 | 0.00 | 99 | 1013.8 |
| 20260510134842 | 55 | 178 | 1.0 | 3.0 | 0.00 | 0.59 | 0.00 | 99 | 1013.8 |
| 20260510134635 | 55 | 169 | 0.0 | 2.0 | 0.00 | 0.59 | 0.00 | 99 | 1013.7 |
| 20260510134543 | 55 | 169 | 0.0 | 2.0 | 0.00 | 0.58 | 0.00 | 99 | 1013.2 |
| 20260510134353 | 55 | 207 | 0.0 | 2.0 | 0.00 | 0.59 | 0.00 | 99 | 1013.8 |
| 20260510133844 | 55 | 166 | 1.0 | 2.0 | 0.00 | 0.59 | 0.00 | 99 | 1013.8 |
| 20260510133357 | 55 | 180 | 0.0 | 2.0 | 0.00 | 0.59 | 0.00 | 99 | 1013.7 |
| 20260510133123 | 54 | 183 | 0.0 | 2.0 | 0.00 | 0.59 | 0.00 | 99 | 1013.7 |
| 20260510133039 | 54 | 183 | 0.0 | 2.0 | 0.00 | 0.58 | 0.00 | 99 | 1013.2 |
| 20260510132844 | 55 | 138 | 0.0 | 2.0 | 0.00 | 0.59 | 0.00 | 99 | 1013.7 |
| 20260510132353 | 55 | 142 | 0.0 | 2.0 | 0.00 | 0.59 | 0.00 | 99 | 1013.5 |
| 20260510131845 | 55 | 84 | 1.0 | 2.0 | 0.00 | 0.59 | 0.00 | 99 | 1013.4 |
| 20260510131612 | 54 | 214 | 0.0 | 2.0 | 0.00 | 0.59 | 0.00 | 99 | 1013.3 |
| 20260510131538 | 54 | 0 | 0.0 | 2.0 | 0.00 | 0.58 | 0.00 | 99 | 1012.8 |
| 20260510131355 | 55 | 188 | 1.0 | 2.0 | 0.00 | 0.59 | 0.00 | 99 | 1013.4 |
| 20260510130845 | 54 | 254 | 1.0 | 2.0 | 0.00 | 0.59 | 0.00 | 99 | 1013.4 |
| 20260510130418 | 54 | 237 | 0.0 | 1.0 | 0.00 | 0.59 | 0.00 | 99 | 1013.4 |
| 20260510130101 | 54 | 237 | 0.0 | 1.0 | 0.00 | 0.59 | 0.00 | 99 | 1013.4 |
| 20260510130040 | 54 | 0 | 0.0 | 1.0 | 0.00 | 0.58 | 0.00 | 99 | 1013.0 |
| 20260510125845 | 54 | 237 | 0.0 | 1.0 | 0.00 | 0.60 | 0.00 | 99 | 1013.5 |
| 20260510125355 | 54 | 237 | 0.0 | 1.0 | 0.00 | 0.60 | 0.00 | 99 | 1013.4 |
| 20260510124845 | 54 | 237 | 0.0 | 1.0 | 0.00 | 0.60 | 0.00 | 99 | 1013.4 |
| 20260510124614 | 54 | 237 | 0.0 | 1.0 | 0.00 | 0.60 | 0.00 | 99 | 1013.3 |
| 20260510124545 | 53 | 237 | 0.0 | 2.0 | 0.00 | 0.60 | 0.00 | 99 | 1012.7 |
| 20260510124356 | 54 | 237 | 0.0 | 2.0 | 0.00 | 0.60 | 0.00 | 99 | 1013.3 |
| 20260510123846 | 54 | 237 | 0.0 | 2.0 | 0.00 | 0.60 | 0.00 | 99 | 1013.3 |
| 20260510123358 | 54 | 249 | 0.0 | 1.0 | 0.00 | 0.60 | 0.00 | 99 | 1013.2 |
| 20260510123103 | 53 | 249 | 0.0 | 1.0 | 0.00 | 0.60 | 0.00 | 99 | 1013.1 |
| 20260510123042 | 53 | 0 | 0.0 | 1.0 | 0.00 | 0.60 | 0.00 | 99 | 1012.5 |
| 20260510122846 | 54 | 249 | 0.0 | 1.0 | 0.00 | 0.60 | 0.00 | 99 | 1013.1 |
| 20260510122355 | 54 | 249 | 0.0 | 1.0 | 0.00 | 0.60 | 0.00 | 99 | 1013.1 |
| 20260510121846 | 54 | 249 | 0.0 | 2.0 | 0.00 | 0.60 | 0.00 | 99 | 1013.0 |
| 20260510121613 | 53 | 249 | 0.0 | 2.0 | 0.00 | 0.60 | 0.00 | 99 | 1013.0 |
| 20260510121539 | 53 | 0 | 1.0 | 2.0 | 0.00 | 0.60 | 0.00 | 99 | 1012.4 |
| 20260510121339 | 53 | 263 | 1.0 | 2.0 | 0.00 | 0.60 | 0.00 | 99 | 1013.0 |
| 20260510120848 | 53 | 281 | 0.0 | 2.0 | 0.00 | 0.60 | 0.00 | 99 | 1013.1 |
| 20260510120401 | 53 | 281 | 1.0 | 2.0 | 0.00 | 0.60 | 0.00 | 99 | 1013.1 |
| 20260510120120 | 53 | 281 | 0.0 | 2.0 | 0.00 | 0.60 | 0.00 | 99 | 1013.1 |
| 20260510120039 | 53 | 277 | 1.0 | 2.0 | 0.00 | 0.60 | 0.00 | 99 | 1012.4 |
| 20260510115847 | 53 | 232 | 1.0 | 2.0 | 0.00 | 0.60 | 0.00 | 99 | 1013.0 |
| 20260510115337 | 53 | 215 | 0.0 | 2.0 | 0.00 | 0.60 | 0.00 | 99 | 1013.0 |
| 20260510114846 | 53 | 215 | 0.0 | 2.0 | 0.00 | 0.60 | 0.00 | 99 | 1013.0 |
| 20260510114609 | 52 | 215 | 0.0 | 2.0 | 0.00 | 0.60 | 0.00 | 99 | 1013.0 |
| 20260510114541 | 52 | 0 | 0.0 | 2.0 | 0.00 | 0.60 | 0.00 | 99 | 1012.3 |
| 20260510114355 | 53 | 215 | 0.0 | 1.0 | 0.00 | 0.60 | 0.00 | 99 | 1013.0 |
| 20260510113844 | 53 | 202 | 0.0 | 1.0 | 0.00 | 0.60 | 0.00 | 99 | 1012.9 |
| 20260510113354 | 53 | 241 | 0.0 | 1.0 | 0.00 | 0.60 | 0.00 | 99 | 1012.7 |
| 20260510113039 | 52 | 0 | 0.0 | 1.0 | 0.00 | 0.60 | 0.00 | 99 | 1011.9 |
| 20260510113002 | 52 | 241 | 0.0 | 1.0 | 0.00 | 0.60 | 0.00 | 99 | 1012.5 |
| 20260510112902 | 53 | 248 | 0.0 | 1.0 | 0.00 | 0.60 | 0.00 | 99 | 1012.5 |
| 20260510112351 | 53 | 248 | 0.0 | 1.0 | 0.00 | 0.60 | 0.00 | 99 | 1012.5 |
| 20260510111843 | 52 | 248 | 0.0 | 1.0 | 0.00 | 0.60 | 0.00 | 99 | 1012.4 |
| 20260510111609 | 52 | 248 | 0.0 | 1.0 | 0.00 | 0.60 | 0.00 | 99 | 1012.4 |
| 20260510111536 | 52 | 0 | 0.0 | 1.0 | 0.00 | 0.60 | 0.00 | 99 | 1011.8 |
| 20260510111353 | 52 | 248 | 0.0 | 1.0 | 0.00 | 0.60 | 0.00 | 99 | 1012.4 |
| 20260510110843 | 52 | 221 | 0.0 | 3.0 | 0.00 | 0.60 | 0.00 | 99 | 1012.4 |
| 20260510110355 | 52 | 99 | 1.0 | 3.0 | 0.00 | 0.60 | 0.00 | 99 | 1012.4 |
| 20260510110120 | 52 | 133 | 1.0 | 3.0 | 0.00 | 0.60 | 0.00 | 99 | 1012.3 |
| 20260510110042 | 52 | 133 | 0.0 | 4.0 | 0.00 | 0.60 | 0.00 | 99 | 1011.8 |
| 20260510105842 | 52 | 161 | 1.0 | 1.0 | 0.00 | 0.60 | 0.00 | 99 | 1012.4 |
| 20260510105353 | 52 | 172 | 0.0 | 2.0 | 0.00 | 0.60 | 0.00 | 99 | 1012.3 |
| 20260510104905 | 52 | 150 | 1.0 | 2.0 | 0.00 | 0.60 | 0.00 | 99 | 1012.4 |
| 20260510104615 | 52 | 132 | 0.0 | 2.0 | 0.00 | 0.60 | 0.00 | 99 | 1012.3 |
| 20260510104541 | 52 | 0 | 0.0 | 2.0 | 0.00 | 0.60 | 0.00 | 99 | 1011.8 |
| 20260510104354 | 52 | 132 | 0.0 | 2.0 | 0.00 | 0.60 | 0.00 | 99 | 1012.4 |
| 20260510103845 | 52 | 137 | 0.0 | 1.0 | 0.00 | 0.60 | 0.00 | 99 | 1012.4 |
| 20260510103357 | 52 | 137 | 0.0 | 0.0 | 0.00 | 0.60 | 0.00 | 99 | 1012.5 |
| 20260510103122 | 51 | 137 | 0.0 | 1.0 | 0.00 | 0.60 | 0.00 | 99 | 1012.4 |
| 20260510103046 | 51 | 0 | 0.0 | 1.0 | 0.00 | 0.60 | 0.00 | 98 | 1011.9 |
| 20260510102844 | 52 | 137 | 0.0 | 1.0 | 0.00 | 0.60 | 0.00 | 99 | 1012.4 |
| 20260510102355 | 52 | 137 | 0.0 | 2.0 | 0.00 | 0.60 | 0.00 | 99 | 1012.4 |
| 20260510101840 | 52 | 146 | 1.0 | 2.0 | 0.00 | 0.60 | 0.00 | 99 | 1012.3 |
| 20260510101608 | 51 | 155 | 0.0 | 2.0 | 0.00 | 0.60 | 0.00 | 99 | 1012.3 |
| 20260510101559 | 51 | 0 | 0.0 | 2.0 | 0.00 | 0.60 | 0.00 | 98 | 1011.7 |
| 20260510101352 | 52 | 155 | 0.0 | 2.0 | 0.00 | 0.60 | 0.00 | 99 | 1012.3 |
| 20260510100842 | 52 | 139 | 0.0 | 1.0 | 0.00 | 0.60 | 0.00 | 99 | 1012.4 |
| 20260510100352 | 52 | 139 | 0.0 | 1.0 | 0.00 | 0.60 | 0.00 | 99 | 1012.4 |
| 20260510100118 | 51 | 139 | 0.0 | 1.0 | 0.00 | 0.60 | 0.00 | 99 | 1012.4 |
| 20260510100048 | 51 | 0 | 0.0 | 2.0 | 0.00 | 0.60 | 0.00 | 98 | 1011.9 |
| 20260510095839 | 52 | 147 | 0.0 | 2.0 | 0.00 | 0.60 | 0.00 | 99 | 1012.4 |
| 20260510095350 | 52 | 180 | 1.0 | 2.0 | 0.00 | 0.60 | 0.00 | 99 | 1012.4 |
| 20260510094840 | 52 | 127 | 0.0 | 1.0 | 0.00 | 0.60 | 0.00 | 99 | 1012.3 |
| 20260510094609 | 51 | 139 | 0.0 | 2.0 | 0.00 | 0.60 | 0.00 | 99 | 1012.4 |
| 20260510094542 | 51 | 0 | 0.0 | 2.0 | 0.00 | 0.60 | 0.00 | 98 | 1011.8 |
| 20260510094350 | 52 | 139 | 0.0 | 2.0 | 0.00 | 0.60 | 0.00 | 99 | 1012.5 |
| 20260510093841 | 52 | 224 | 0.0 | 2.0 | 0.00 | 0.60 | 0.00 | 99 | 1012.5 |
| 20260510093351 | 52 | 88 | 0.0 | 2.0 | 0.00 | 0.60 | 0.00 | 99 | 1012.6 |
| 20260510093117 | 52 | 128 | 0.0 | 1.0 | 0.00 | 0.60 | 0.00 | 99 | 1012.5 |
| 20260510093048 | 52 | 0 | 0.0 | 1.0 | 0.00 | 0.60 | 0.00 | 99 | 1012.0 |
| 20260510092900 | 52 | 107 | 0.0 | 1.0 | 0.00 | 0.60 | 0.00 | 99 | 1012.5 |
| 20260510092349 | 52 | 107 | 0.0 | 1.0 | 0.00 | 0.60 | 0.00 | 99 | 1012.6 |
| 20260510091844 | 52 | 107 | 0.0 | 1.0 | 0.00 | 0.60 | 0.00 | 99 | 1012.7 |
| 20260510091606 | 51 | 107 | 0.0 | 1.0 | 0.00 | 0.60 | 0.00 | 99 | 1012.7 |
| 20260510091541 | 51 | 0 | 0.0 | 1.0 | 0.00 | 0.60 | 0.00 | 98 | 1012.1 |
| 20260510091353 | 52 | 126 | 0.0 | 1.0 | 0.00 | 0.60 | 0.00 | 99 | 1012.7 |
| 20260510090844 | 52 | 126 | 0.0 | 1.0 | 0.00 | 0.60 | 0.00 | 99 | 1012.6 |
| 20260510090355 | 52 | 126 | 0.0 | 0.0 | 0.00 | 0.60 | 0.00 | 99 | 1012.7 |
| 20260510090117 | 51 | 126 | 0.0 | 0.0 | 0.00 | 0.60 | 0.00 | 99 | 1012.7 |
| 20260510090039 | 51 | 0 | 0.0 | 0.0 | 0.00 | 0.60 | 0.00 | 98 | 1012.1 |
| 20260510085841 | 52 | 126 | 0.0 | 0.0 | 0.00 | 0.60 | 0.00 | 99 | 1012.7 |
| 20260510085352 | 52 | 126 | 0.0 | 1.0 | 0.00 | 0.60 | 0.00 | 99 | 1012.6 |
| 20260510084841 | 52 | 126 | 0.0 | 1.0 | 0.00 | 0.60 | 0.00 | 99 | 1012.6 |
| 20260510084604 | 51 | 126 | 0.0 | 1.0 | 0.00 | 0.60 | 0.00 | 99 | 1012.7 |
| 20260510084538 | 51 | 0 | 0.0 | 2.0 | 0.00 | 0.60 | 0.00 | 98 | 1012.2 |
| 20260510084411 | 52 | 126 | 0.0 | 2.0 | 0.00 | 0.60 | 0.00 | 99 | 1012.7 |
| 20260510083841 | 52 | 126 | 0.0 | 2.0 | 0.00 | 0.60 | 0.00 | 99 | 1012.8 |
| 20260510083353 | 52 | 34 | 1.0 | 2.0 | 0.00 | 0.60 | 0.00 | 99 | 1012.8 |
| 20260510083116 | 51 | 36 | 0.0 | 2.0 | 0.00 | 0.60 | 0.00 | 99 | 1012.7 |
| 20260510083052 | 51 | 0 | 0.0 | 2.0 | 0.00 | 0.60 | 0.00 | 98 | 1012.2 |
| 20260510082840 | 52 | 97 | 1.0 | 2.0 | 0.00 | 0.60 | 0.00 | 99 | 1012.7 |
| 20260510082350 | 52 | 14 | 1.0 | 4.0 | 0.00 | 0.60 | 0.00 | 99 | 1012.8 |
| 20260510081841 | 51 | 38 | 2.0 | 4.0 | 0.00 | 0.60 | 0.00 | 99 | 1012.7 |
| 20260510081629 | 51 | 19 | 1.0 | 3.0 | 0.00 | 0.60 | 0.00 | 99 | 1012.8 |
| 20260510081546 | 51 | 355 | 0.0 | 4.0 | 0.00 | 0.60 | 0.00 | 98 | 1012.2 |
| 20260510081412 | 52 | 239 | 0.0 | 4.0 | 0.00 | 0.60 | 0.00 | 99 | 1012.7 |
| 20260510080839 | 51 | 315 | 1.0 | 4.0 | 0.00 | 0.60 | 0.00 | 99 | 1012.8 |
| 20260510080413 | 52 | 302 | 1.0 | 4.0 | 0.00 | 0.60 | 0.00 | 99 | 1012.4 |
| 20260510080119 | 51 | 227 | 1.0 | 4.0 | 0.00 | 0.60 | 0.00 | 99 | 1012.5 |
| 20260510080042 | 51 | 290 | 3.0 | 4.0 | 0.00 | 0.60 | 0.00 | 98 | 1012.1 |
| 20260510075840 | 51 | 315 | 3.0 | 4.0 | 0.00 | 0.61 | 0.00 | 99 | 1012.5 |
| 20260510075411 | 51 | 299 | 0.0 | 0.0 | 0.00 | 0.61 | 0.00 | 99 | 1011.8 |
| 20260510074900 | 51 | 299 | 0.0 | 1.0 | 0.00 | 0.61 | 0.00 | 99 | 1011.7 |
| 20260510074607 | 51 | 299 | 0.0 | 1.0 | 0.00 | 0.61 | 0.00 | 99 | 1011.6 |
| 20260510074540 | 51 | 0 | 0.0 | 1.0 | 0.00 | 0.61 | 0.00 | 98 | 1011.0 |
| 20260510074350 | 52 | 299 | 0.0 | 1.0 | 0.00 | 0.61 | 0.00 | 99 | 1011.7 |
| 20260510073900 | 52 | 299 | 0.0 | 0.0 | 0.00 | 0.61 | 0.00 | 99 | 1011.8 |
| 20260510073350 | 52 | 299 | 0.0 | 1.0 | 0.00 | 0.61 | 0.00 | 99 | 1011.7 |
| 20260510073115 | 51 | 299 | 0.0 | 1.0 | 0.00 | 0.61 | 0.00 | 99 | 1011.7 |
| 20260510073041 | 51 | 0 | 0.0 | 1.0 | 0.00 | 0.61 | 0.00 | 98 | 1011.1 |
| 20260510072838 | 52 | 299 | 0.0 | 1.0 | 0.00 | 0.61 | 0.00 | 99 | 1011.7 |
| 20260510072409 | 52 | 299 | 0.0 | 2.0 | 0.00 | 0.61 | 0.00 | 99 | 1011.8 |
| 20260510071858 | 52 | 299 | 0.0 | 2.0 | 0.00 | 0.61 | 0.00 | 99 | 1012.0 |
| 20260510071606 | 51 | 299 | 0.0 | 2.0 | 0.00 | 0.61 | 0.00 | 99 | 1012.0 |
| 20260510071548 | 51 | 0 | 0.0 | 2.0 | 0.00 | 0.61 | 0.00 | 98 | 1011.4 |
| 20260510071409 | 52 | 299 | 0.0 | 2.0 | 0.00 | 0.61 | 0.00 | 99 | 1012.0 |
| 20260510070859 | 52 | 292 | 1.0 | 3.0 | 0.00 | 0.61 | 0.00 | 99 | 1012.0 |
| 20260510070349 | 52 | 290 | 1.0 | 3.0 | 0.00 | 0.61 | 0.00 | 99 | 1012.0 |
| 20260510070109 | 51 | 297 | 1.0 | 3.0 | 0.00 | 0.61 | 0.00 | 99 | 1011.9 |
| 20260510070044 | 51 | 300 | 1.0 | 3.0 | 0.00 | 0.61 | 0.00 | 98 | 1011.2 |
| 20260510065856 | 52 | 290 | 2.0 | 3.0 | 0.00 | 0.61 | 0.00 | 99 | 1011.8 |
| 20260510065343 | 52 | 304 | 1.0 | 2.0 | 0.00 | 0.61 | 0.00 | 99 | 1011.9 |
| 20260510064853 | 52 | 329 | 1.0 | 1.0 | 0.00 | 0.61 | 0.00 | 99 | 1011.9 |
| 20260510064601 | 51 | 329 | 0.0 | 1.0 | 0.00 | 0.61 | 0.00 | 99 | 1011.9 |
| 20260510064544 | 52 | 0 | 0.0 | 2.0 | 0.00 | 0.61 | 0.00 | 98 | 1011.3 |
| 20260510064405 | 52 | 329 | 0.0 | 2.0 | 0.00 | 0.61 | 0.00 | 99 | 1012.0 |
| 20260510063855 | 52 | 329 | 0.0 | 2.0 | 0.00 | 0.61 | 0.00 | 99 | 1012.0 |
| 20260510063345 | 52 | 267 | 0.0 | 1.0 | 0.00 | 0.61 | 0.00 | 99 | 1012.0 |
| 20260510063112 | 52 | 267 | 0.0 | 1.0 | 0.00 | 0.61 | 0.00 | 99 | 1012.0 |
| 20260510063045 | 52 | 0 | 0.0 | 1.0 | 0.00 | 0.61 | 0.00 | 98 | 1011.3 |
| 20260510062853 | 52 | 267 | 0.0 | 1.0 | 0.00 | 0.61 | 0.00 | 99 | 1012.0 |
| 20260510062343 | 52 | 267 | 0.0 | 1.0 | 0.00 | 0.61 | 0.00 | 99 | 1012.1 |
| 20260510061855 | 52 | 263 | 0.0 | 2.0 | 0.00 | 0.61 | 0.00 | 99 | 1012.0 |
| 20260510061603 | 52 | 263 | 0.0 | 2.0 | 0.00 | 0.61 | 0.00 | 99 | 1012.0 |
| 20260510061547 | 52 | 249 | 0.0 | 2.0 | 0.00 | 0.61 | 0.00 | 98 | 1011.3 |
| 20260510061345 | 52 | 181 | 0.0 | 1.0 | 0.00 | 0.61 | 0.00 | 99 | 1011.9 |
| 20260510060855 | 52 | 173 | 0.0 | 1.0 | 0.00 | 0.61 | 0.00 | 99 | 1011.8 |
| 20260510060346 | 52 | 173 | 0.0 | 1.0 | 0.00 | 0.61 | 0.00 | 99 | 1011.7 |
| 20260510060111 | 52 | 173 | 0.0 | 1.0 | 0.00 | 0.61 | 0.00 | 99 | 1011.7 |
| 20260510060039 | 52 | 173 | 0.0 | 1.0 | 0.00 | 0.61 | 0.00 | 98 | 1011.1 |
| 20260510055852 | 52 | 173 | 0.0 | 1.0 | 0.00 | 0.61 | 0.00 | 99 | 1011.7 |
| 20260510055343 | 52 | 173 | 0.0 | 1.0 | 0.00 | 0.61 | 0.00 | 99 | 1011.7 |
| 20260510054854 | 52 | 173 | 0.0 | 1.0 | 0.00 | 0.61 | 0.00 | 98 | 1011.7 |
| 20260510054603 | 52 | 173 | 0.0 | 1.0 | 0.00 | 0.61 | 0.00 | 98 | 1011.7 |
| 20260510054542 | 52 | 0 | 0.0 | 2.0 | 0.00 | 0.61 | 0.00 | 98 | 1011.1 |
| 20260510054345 | 52 | 173 | 0.0 | 2.0 | 0.00 | 0.61 | 0.00 | 98 | 1011.7 |
| 20260510053917 | 52 | 173 | 0.0 | 2.0 | 0.00 | 0.61 | 0.00 | 98 | 1011.8 |
| 20260510053407 | 52 | 173 | 0.0 | 1.0 | 0.00 | 0.61 | 0.00 | 98 | 1011.7 |
| 20260510053122 | 52 | 173 | 0.0 | 0.0 | 0.00 | 0.61 | 0.00 | 98 | 1011.7 |
| 20260510053043 | 52 | 0 | 0.0 | 1.0 | 0.00 | 0.61 | 0.00 | 98 | 1011.2 |
| 20260510052852 | 52 | 173 | 0.0 | 0.0 | 0.00 | 0.61 | 0.00 | 98 | 1011.7 |
| 20260510052343 | 52 | 173 | 0.0 | 1.0 | 0.00 | 0.61 | 0.00 | 98 | 1011.6 |
| 20260510051853 | 52 | 173 | 0.0 | 2.0 | 0.00 | 0.61 | 0.00 | 98 | 1011.8 |
| 20260510051703 | 52 | 173 | 0.0 | 2.0 | 0.00 | 0.61 | 0.00 | 98 | 1011.8 |
| 20260510051544 | 52 | 0 | 0.0 | 2.0 | 0.00 | 0.61 | 0.00 | 98 | 1011.2 |
| 20260510051344 | 53 | 173 | 0.0 | 2.0 | 0.00 | 0.61 | 0.00 | 98 | 1011.8 |
| 20260510050854 | 53 | 231 | 0.0 | 1.0 | 0.00 | 0.61 | 0.00 | 98 | 1011.9 |
| 20260510050405 | 53 | 325 | 0.0 | 2.0 | 0.00 | 0.61 | 0.00 | 98 | 1011.9 |
| 20260510050109 | 52 | 325 | 0.0 | 2.0 | 0.00 | 0.61 | 0.00 | 98 | 1011.9 |
| 20260510050044 | 52 | 0 | 0.0 | 2.0 | 0.00 | 0.61 | 0.00 | 98 | 1011.3 |
| 20260510045852 | 53 | 325 | 0.0 | 2.0 | 0.00 | 0.61 | 0.00 | 98 | 1012.0 |
| 20260510045343 | 53 | 30 | 0.0 | 1.0 | 0.00 | 0.61 | 0.00 | 98 | 1011.9 |
| 20260510044838 | 53 | 30 | 0.0 | 1.0 | 0.00 | 0.61 | 0.00 | 98 | 1011.8 |
| 20260510044623 | 52 | 30 | 0.0 | 1.0 | 0.00 | 0.61 | 0.00 | 98 | 1011.8 |
| 20260510044545 | 52 | 0 | 0.0 | 1.0 | 0.00 | 0.61 | 0.00 | 98 | 1011.1 |
| 20260510044349 | 53 | 30 | 0.0 | 1.0 | 0.00 | 0.61 | 0.00 | 98 | 1011.8 |
| 20260510043838 | 53 | 349 | 0.0 | 1.0 | 0.00 | 0.61 | 0.00 | 98 | 1011.8 |
| 20260510043350 | 53 | 349 | 0.0 | 1.0 | 0.00 | 0.61 | 0.00 | 98 | 1011.8 |
| 20260510043145 | 52 | 349 | 0.0 | 1.0 | 0.00 | 0.61 | 0.00 | 98 | 1011.8 |
| 20260510043039 | 52 | 0 | 0.0 | 1.0 | 0.00 | 0.61 | 0.00 | 98 | 1011.2 |
| 20260510042857 | 53 | 349 | 0.0 | 1.0 | 0.00 | 0.61 | 0.00 | 98 | 1011.8 |
| 20260510042346 | 53 | 349 | 0.0 | 1.0 | 0.00 | 0.61 | 0.00 | 98 | 1011.8 |
| 20260510041838 | 53 | 349 | 0.0 | 1.0 | 0.00 | 0.61 | 0.00 | 98 | 1011.8 |
| 20260510041621 | 52 | 349 | 0.0 | 1.0 | 0.00 | 0.61 | 0.00 | 98 | 1011.8 |
| 20260510041538 | 52 | 0 | 0.0 | 1.0 | 0.00 | 0.61 | 0.00 | 98 | 1011.2 |
| 20260510041348 | 53 | 349 | 0.0 | 1.0 | 0.00 | 0.61 | 0.00 | 98 | 1011.9 |
| 20260510040839 | 53 | 349 | 1.0 | 1.0 | 0.00 | 0.61 | 0.00 | 98 | 1011.8 |
| 20260510040351 | 53 | 349 | 0.0 | 0.0 | 0.00 | 0.61 | 0.00 | 98 | 1011.7 |
| 20260510040116 | 52 | 349 | 0.0 | 0.0 | 0.00 | 0.61 | 0.00 | 98 | 1011.6 |
| 20260510040047 | 52 | 0 | 0.0 | 0.0 | 0.00 | 0.61 | 0.00 | 98 | 1011.0 |
| 20260510035838 | 53 | 349 | 0.0 | 0.0 | 0.00 | 0.61 | 0.61 | 98 | 1011.6 |
| 20260510035411 | 53 | 349 | 0.0 | 0.0 | 0.00 | 0.61 | 0.61 | 98 | 1011.7 |
| 20260510034840 | 53 | 349 | 0.0 | 1.0 | 0.00 | 0.61 | 0.61 | 98 | 1011.6 |
| 20260510034608 | 53 | 349 | 0.0 | 1.0 | 0.00 | 0.61 | 0.61 | 98 | 1011.5 |
| 20260510034540 | 52 | 0 | 0.0 | 1.0 | 0.00 | 0.61 | 0.61 | 98 | 1010.9 |
| 20260510034351 | 53 | 349 | 0.0 | 1.0 | 0.00 | 0.61 | 0.61 | 98 | 1011.5 |
| 20260510033842 | 53 | 349 | 0.0 | 2.0 | 0.00 | 0.61 | 0.61 | 98 | 1011.4 |
| 20260510033352 | 53 | 349 | 0.0 | 2.0 | 0.00 | 0.61 | 0.61 | 98 | 1011.3 |
| 20260510033117 | 53 | 19 | 0.0 | 2.0 | 0.00 | 0.61 | 0.61 | 98 | 1011.3 |
| 20260510033057 | 53 | 0 | 0.0 | 2.0 | 0.00 | 0.61 | 0.61 | 98 | 1010.7 |
| 20260510032838 | 53 | 42 | 0.0 | 2.0 | 0.00 | 0.61 | 0.61 | 98 | 1011.3 |
| 20260510032410 | 53 | 75 | 0.0 | 2.0 | 0.00 | 0.61 | 0.61 | 98 | 1011.4 |
| 20260510031839 | 53 | 142 | 0.0 | 0.0 | 0.00 | 0.61 | 0.61 | 98 | 1011.4 |
| 20260510031629 | 53 | 142 | 0.0 | 1.0 | 0.00 | 0.61 | 0.61 | 98 | 1011.4 |
| 20260510031546 | 53 | 0 | 0.0 | 1.0 | 0.00 | 0.61 | 0.61 | 98 | 1010.8 |
| 20260510031412 | 53 | 142 | 0.0 | 1.0 | 0.00 | 0.61 | 0.61 | 98 | 1011.4 |
| 20260510030844 | 53 | 142 | 0.0 | 1.0 | 0.00 | 0.61 | 0.61 | 98 | 1011.4 |
| 20260510030354 | 53 | 142 | 0.0 | 1.0 | 0.00 | 0.61 | 0.61 | 98 | 1011.4 |
| 20260510030120 | 53 | 142 | 0.0 | 1.0 | 0.00 | 0.61 | 0.61 | 98 | 1011.5 |
| 20260510030038 | 53 | 0 | 0.0 | 2.0 | 0.00 | 0.61 | 0.61 | 98 | 1010.8 |
| 20260510025840 | 53 | 142 | 0.0 | 2.0 | 0.00 | 0.61 | 0.61 | 98 | 1011.6 |
| 20260510025351 | 53 | 142 | 1.0 | 2.0 | 0.00 | 0.61 | 0.61 | 98 | 1011.6 |
| 20260510024841 | 53 | 161 | 0.0 | 1.0 | 0.00 | 0.61 | 0.61 | 98 | 1011.8 |
| 20260510024608 | 53 | 161 | 0.0 | 0.0 | 0.00 | 0.61 | 0.61 | 98 | 1011.8 |
| 20260510024544 | 53 | 0 | 0.0 | 0.0 | 0.00 | 0.61 | 0.61 | 98 | 1011.1 |
| 20260510024351 | 54 | 161 | 0.0 | 0.0 | 0.00 | 0.61 | 0.61 | 98 | 1011.8 |
| 20260510023902 | 54 | 161 | 0.0 | 0.0 | 0.00 | 0.61 | 0.61 | 98 | 1011.7 |
| 20260510023354 | 54 | 161 | 0.0 | 0.0 | 0.00 | 0.61 | 0.61 | 98 | 1011.5 |
| 20260510023118 | 53 | 161 | 0.0 | 0.0 | 0.00 | 0.61 | 0.61 | 98 | 1011.6 |
| 20260510023037 | 53 | 0 | 0.0 | 0.0 | 0.00 | 0.61 | 0.61 | 98 | 1010.9 |
| 20260510022840 | 54 | 161 | 0.0 | 0.0 | 0.00 | 0.61 | 0.61 | 98 | 1011.7 |
| 20260510022349 | 54 | 161 | 0.0 | 0.0 | 0.00 | 0.61 | 0.61 | 98 | 1011.7 |
| 20260510021838 | 54 | 161 | 0.0 | 0.0 | 0.00 | 0.61 | 0.61 | 98 | 1011.6 |
| 20260510021606 | 53 | 161 | 0.0 | 0.0 | 0.00 | 0.61 | 0.61 | 98 | 1011.7 |
| 20260510021543 | 53 | 0 | 0.0 | 0.0 | 0.00 | 0.61 | 0.61 | 98 | 1011.0 |
| 20260510021350 | 54 | 161 | 0.0 | 0.0 | 0.00 | 0.61 | 0.61 | 98 | 1011.7 |
| 20260510020857 | 54 | 161 | 0.0 | 1.0 | 0.00 | 0.61 | 0.61 | 98 | 1011.7 |
| 20260510020410 | 54 | 161 | 0.0 | 1.0 | 0.00 | 0.61 | 0.61 | 98 | 1011.8 |
| 20260510020114 | 53 | 161 | 0.0 | 2.0 | 0.00 | 0.61 | 0.61 | 98 | 1011.7 |
| 20260510020042 | 53 | 0 | 0.0 | 2.0 | 0.00 | 0.61 | 0.61 | 97 | 1011.0 |
| 20260510015916 | 54 | 153 | 0.0 | 2.0 | 0.00 | 0.61 | 0.61 | 98 | 1011.6 |
| 20260510015346 | 54 | 211 | 0.0 | 2.0 | 0.00 | 0.61 | 0.61 | 98 | 1011.7 |
| 20260510014855 | 54 | 115 | 1.0 | 2.0 | 0.00 | 0.61 | 0.61 | 98 | 1011.7 |
| 20260510014603 | 54 | 203 | 0.0 | 2.0 | 0.00 | 0.61 | 0.61 | 98 | 1011.5 |
| 20260510014543 | 54 | 0 | 0.0 | 2.0 | 0.00 | 0.61 | 0.61 | 98 | 1010.9 |
| 20260510014344 | 54 | 130 | 1.0 | 2.0 | 0.00 | 0.61 | 0.61 | 98 | 1011.4 |
| 20260510013855 | 54 | 194 | 0.0 | 1.0 | 0.00 | 0.61 | 0.61 | 98 | 1011.4 |
| 20260510013405 | 54 | 171 | 0.0 | 1.0 | 0.00 | 0.61 | 0.61 | 98 | 1011.4 |
| 20260510013111 | 54 | 171 | 0.0 | 1.0 | 0.00 | 0.61 | 0.61 | 98 | 1011.4 |
| 20260510013039 | 54 | 0 | 0.0 | 1.0 | 0.00 | 0.61 | 0.61 | 98 | 1010.9 |
| 20260510012852 | 54 | 171 | 0.0 | 1.0 | 0.00 | 0.61 | 0.61 | 98 | 1011.4 |
| 20260510012340 | 54 | 171 | 0.0 | 1.0 | 0.00 | 0.61 | 0.61 | 98 | 1011.2 |
| 20260510011850 | 54 | 171 | 0.0 | 1.0 | 0.00 | 0.61 | 0.61 | 98 | 1011.1 |
| 20260510011631 | 54 | 171 | 0.0 | 1.0 | 0.00 | 0.61 | 0.61 | 98 | 1011.1 |
| 20260510011550 | 54 | 0 | 0.0 | 1.0 | 0.00 | 0.61 | 0.61 | 97 | 1010.6 |
| 20260510011344 | 54 | 171 | 0.0 | 1.0 | 0.00 | 0.61 | 0.61 | 98 | 1011.1 |
| 20260510010851 | 54 | 195 | 0.0 | 2.0 | 0.00 | 0.61 | 0.61 | 98 | 1011.1 |
| 20260510010341 | 54 | 190 | 0.0 | 2.0 | 0.00 | 0.61 | 0.61 | 98 | 1011.0 |
| 20260510010038 | 53 | 190 | 0.0 | 2.0 | 0.00 | 0.61 | 0.61 | 97 | 1010.4 |
| 20260510010012 | 53 | 193 | 0.0 | 2.0 | 0.00 | 0.61 | 0.61 | 98 | 1011.0 |
| 20260510005908 | 54 | 129 | 0.0 | 2.0 | 0.00 | 0.61 | 0.61 | 98 | 1011.0 |
| 20260510005357 | 54 | 129 | 1.0 | 2.0 | 0.00 | 0.61 | 0.61 | 98 | 1011.0 |
| 20260510004846 | 54 | 134 | 0.0 | 1.0 | 0.00 | 0.61 | 0.61 | 98 | 1010.9 |
| 20260510004612 | 53 | 179 | 0.0 | 1.0 | 0.00 | 0.61 | 0.61 | 98 | 1010.9 |
| 20260510004540 | 53 | 0 | 0.0 | 0.0 | 0.00 | 0.61 | 0.61 | 97 | 1010.4 |
| 20260510004356 | 54 | 151 | 0.0 | 0.0 | 0.00 | 0.61 | 0.61 | 98 | 1010.9 |
| 20260510003906 | 54 | 151 | 0.0 | 0.0 | 0.00 | 0.61 | 0.61 | 98 | 1010.9 |
| 20260510003356 | 54 | 151 | 0.0 | 0.0 | 0.00 | 0.61 | 0.61 | 98 | 1011.0 |
| 20260510003120 | 53 | 151 | 0.0 | 0.0 | 0.00 | 0.61 | 0.61 | 98 | 1011.0 |
| 20260510003100 | 53 | 0 | 0.0 | 0.0 | 0.00 | 0.61 | 0.61 | 97 | 1010.4 |
| 20260510002843 | 54 | 151 | 0.0 | 0.0 | 0.00 | 0.61 | 0.61 | 98 | 1011.0 |
| 20260510002353 | 54 | 151 | 0.0 | 0.0 | 0.00 | 0.61 | 0.61 | 98 | 1010.9 |
| 20260510001839 | 54 | 151 | 0.0 | 0.0 | 0.00 | 0.61 | 0.61 | 98 | 1010.9 |
| 20260510001602 | 54 | 151 | 0.0 | 0.0 | 0.00 | 0.61 | 0.61 | 98 | 1010.8 |
| 20260510001542 | 54 | 0 | 0.0 | 0.0 | 0.00 | 0.61 | 0.61 | 97 | 1010.3 |
| 20260510001350 | 54 | 151 | 0.0 | 0.0 | 0.00 | 0.61 | 0.61 | 98 | 1010.8 |
| 20260510000839 | 55 | 151 | 0.0 | 0.0 | 0.00 | 0.61 | 0.61 | 98 | 1010.8 |
| 20260510000350 | 55 | 151 | 0.0 | 0.0 | 0.00 | 0.61 | 0.61 | 98 | 1010.7 |
| 20260510000111 | 54 | 151 | 0.0 | 0.0 | 0.00 | 0.61 | 0.61 | 98 | 1010.7 |
| 20260510000045 | 54 | 0 | 0.0 | 0.0 | 0.00 | 0.61 | 0.61 | 97 | 1010.1 |
| 20260509235836 | 55 | 150 | 0.0 | 0.0 | 0.00 | 0.61 | 0.61 | 98 | 1010.6 |
| 20260509235408 | 55 | 256 | 0.0 | 0.0 | 0.00 | 0.61 | 0.61 | 98 | 1010.6 |
| 20260509234856 | 55 | 256 | 0.0 | 0.0 | 0.00 | 0.61 | 0.61 | 98 | 1010.7 |
| 20260509234611 | 55 | 256 | 0.0 | 0.0 | 0.00 | 0.61 | 0.61 | 98 | 1010.7 |
| 20260509234556 | 55 | 0 | 0.0 | 0.0 | 0.00 | 0.61 | 0.61 | 97 | 1010.1 |
| 20260509234345 | 56 | 256 | 0.0 | 0.0 | 0.00 | 0.61 | 0.61 | 98 | 1010.7 |
| 20260509233836 | 56 | 256 | 0.0 | 0.0 | 0.00 | 0.61 | 0.61 | 98 | 1010.7 |
| 20260509233347 | 56 | 256 | 0.0 | 0.0 | 0.00 | 0.61 | 0.61 | 98 | 1010.7 |
| 20260509233110 | 55 | 256 | 0.0 | 0.0 | 0.00 | 0.61 | 0.61 | 98 | 1010.7 |
| 20260509233038 | 55 | 0 | 0.0 | 0.0 | 0.00 | 0.61 | 0.61 | 97 | 1010.1 |
| 20260509232853 | 56 | 256 | 0.0 | 0.0 | 0.01 | 0.61 | 0.61 | 98 | 1010.7 |
| 20260509232405 | 56 | 256 | 0.0 | 0.0 | 0.01 | 0.61 | 0.61 | 98 | 1010.8 |
| 20260509231854 | 56 | 256 | 0.0 | 0.0 | 0.03 | 0.61 | 0.61 | 98 | 1010.9 |
| 20260509231623 | 55 | 294 | 0.0 | 0.0 | 0.03 | 0.61 | 0.61 | 98 | 1010.8 |
| 20260509231547 | 55 | 0 | 0.0 | 0.0 | 0.03 | 0.61 | 0.61 | 97 | 1010.3 |
| 20260509231343 | 56 | 294 | 0.0 | 0.0 | 0.04 | 0.61 | 0.61 | 98 | 1010.9 |
| 20260509230853 | 56 | 294 | 0.0 | 0.0 | 0.05 | 0.61 | 0.61 | 98 | 1010.9 |
| 20260509230343 | 56 | 294 | 0.0 | 0.0 | 0.07 | 0.61 | 0.61 | 98 | 1011.0 |
| 20260509230108 | 55 | 294 | 0.0 | 0.0 | 0.07 | 0.61 | 0.61 | 98 | 1010.9 |
| 20260509230050 | 55 | 0 | 0.0 | 0.0 | 0.08 | 0.61 | 0.61 | 97 | 1010.4 |
| 20260509225850 | 56 | 294 | 0.0 | 0.0 | 0.09 | 0.61 | 0.61 | 98 | 1010.9 |
| 20260509225341 | 56 | 294 | 0.0 | 0.0 | 0.13 | 0.61 | 0.61 | 98 | 1011.0 |
| 20260509224851 | 56 | 294 | 0.0 | 0.0 | 0.15 | 0.61 | 0.61 | 98 | 1010.9 |
| 20260509224630 | 55 | 193 | 0.0 | 0.0 | 0.16 | 0.61 | 0.61 | 98 | 1010.9 |
| 20260509224543 | 55 | 0 | 0.0 | 0.0 | 0.17 | 0.61 | 0.61 | 97 | 1010.3 |
| 20260509224341 | 55 | 193 | 0.0 | 0.0 | 0.18 | 0.61 | 0.61 | 98 | 1010.8 |
| 20260509223851 | 55 | 193 | 0.0 | 0.0 | 0.19 | 0.61 | 0.61 | 98 | 1011.1 |
| 20260509223402 | 56 | 193 | 0.0 | 0.0 | 0.20 | 0.61 | 0.61 | 97 | 1011.1 |
| 20260509223041 | 55 | 0 | 0.0 | 2.0 | 0.21 | 0.61 | 0.61 | 97 | 1010.7 |
| 20260509222847 | 56 | 193 | 0.0 | 2.0 | 0.21 | 0.60 | 0.60 | 97 | 1011.2 |
| 20260509222357 | 56 | 193 | 0.0 | 2.0 | 0.21 | 0.60 | 0.60 | 97 | 1011.1 |
| 20260509221908 | 55 | 201 | 0.0 | 2.0 | 0.19 | 0.58 | 0.58 | 97 | 1011.1 |
| 20260509221618 | 55 | 201 | 0.0 | 2.0 | 0.19 | 0.57 | 0.57 | 97 | 1011.1 |
| 20260509221539 | 55 | 0 | 0.0 | 2.0 | 0.18 | 0.57 | 0.57 | 97 | 1010.5 |
| 20260509221337 | 55 | 286 | 1.0 | 1.0 | 0.19 | 0.57 | 0.57 | 97 | 1011.0 |
| 20260509220846 | 55 | 286 | 0.0 | 1.0 | 0.18 | 0.56 | 0.56 | 97 | 1011.3 |
| 20260509220357 | 55 | 286 | 0.0 | 2.0 | 0.16 | 0.54 | 0.54 | 97 | 1011.4 |
| 20260509220040 | 55 | 0 | 0.0 | 2.0 | 0.16 | 0.52 | 0.52 | 97 | 1010.9 |
| 20260509215844 | 55 | 286 | 0.0 | 2.0 | 0.15 | 0.52 | 0.52 | 97 | 1011.5 |
| 20260509215355 | 56 | 286 | 0.0 | 2.0 | 0.11 | 0.47 | 0.47 | 97 | 1011.6 |
| 20260509214906 | 56 | 286 | 0.0 | 2.0 | 0.10 | 0.46 | 0.46 | 97 | 1011.6 |
| 20260509214613 | 55 | 286 | 0.0 | 3.0 | 0.09 | 0.44 | 0.44 | 97 | 1011.4 |
| 20260509214536 | 55 | 0 | 0.0 | 3.0 | 0.09 | 0.44 | 0.44 | 97 | 1010.9 |